SL-8 DEB, 1478

Orbit data source: Space-Track

SL-8 DEB, 1478 is space debris in LEO originally from a launch on Mon, 15 Mar 1965 UTC launched from the Tyuratam Missile And Space Complex (TTMTR). Debris objects in space refer to the collection of defunct objects orbiting the Earth. Examples of debris include non-operational satellites, rocket bodies, and fragments generated from explosions, collisions, or faulty payload assembly.

Loading next visibility...
Identifier
1478, 1965-020BC
Orbit
LEO
Country
Flag of CISCIS
Related business
Manufacturer
Unknown
Mission
Spacecraft
Bus & Motor
Unknown
Mass
Unknown
Launch date (UTC)
1965-03-15 (61 years ago)
Launch vehicle
Unknown
Launch site
Tyuratam Missile And Space Complex (TTMTR)
Object type
Payload
Rocket body
Debris
Shape & HBR
Unknown shape, 0.1 m
Radar Cross Section
Medium (>0.1 m² and <1 m²)

Expand to show TLE details & history
Last TLE update: 1 day ago

TLE from 1 day ago
0 SL-8 DEB
1 01478U 65020BC  26236.37397024  .00000628  00000-0  35824-3 0  9998
2 01478  56.0756 123.2589 0585875 346.8865  11.7402 13.56140799934128
Epoch: 2026-08-24T08:58Z
TLE epoch observation values (Epoch: 2026-08-24T08:58:31.028Z)
Latitude
-0.00001°
Longitude
15.97301°
Altitude
625.946 km
Speed
7.759 km/s
True Right ascension
08h 13m 02s
True Declination
0° 00' 00"
Sunlit
Object was in daylight at epoch
Visualization orbit readout
Latitude
Unknown
Longitude
Unknown
Altitude
Unknown
Speed
Unknown
Apparent Right ascension
Unknown
Apparent Declination
Unknown
Sunlit
N/A
Visualization observer readout
Local Sidereal Time
01:51:57
Azimuth
Unknown
Elevation
Unknown
Doppler factor
Unknown
Orbital elements
Apogee altitude
1,484.73 km
Perigee altitude
614.39 km
Semi-major axis
7,427.697 km
Eccentricity
0.05859
Inclination
56.0756°
RAAN
123.2589°
Arg. of periapsis
346.8865°
True anomaly
13.21124°
Mean anomaly
11.7402°
Eccentric anomaly
12.46473°
Mean motion
3.39049 °/min
Orbital period
106.18 mins
BSTAR
0.00035824
Loading maneuver chart data...
Computing Atmospheric mass density...
Loading historical data...
Loading historical data...
Loading historical data...
Loading historical data...
Loading historical data...
Loading historical data...
Loading historical data...

Documentation

Showing up to 5 results
|